| time (UTC) | temp F | wind direction | speed MPH | gust MPH | rain 1hr in | rain 24hr in | rain mn in | humidity % | barometer mb |
| 20260505124731 | 43 | 261 | 8.0 | 18.0 | 0.00 | 0.00 | 0.00 | 46 | 974.6 |
| 20260505123830 | 42 | 251 | 11.0 | 18.0 | 0.00 | 0.00 | 0.00 | 48 | 974.8 |
| 20260505122930 | 43 | 278 | 9.0 | 15.0 | 0.00 | 0.00 | 0.00 | 45 | 974.7 |
| 20260505122030 | 44 | 265 | 8.0 | 14.0 | 0.00 | 0.00 | 0.00 | 42 | 974.5 |
| 20260505121131 | 45 | 309 | 7.0 | 9.0 | 0.00 | 0.00 | 0.00 | 37 | 974.3 |
| 20260505120230 | 45 | 322 | 11.0 | 15.0 | 0.00 | 0.00 | 0.00 | 31 | 974.2 |
| 20260505115330 | 45 | 317 | 12.0 | 16.0 | 0.00 | 0.00 | 0.00 | 32 | 974.1 |
| 20260505114430 | 46 | 305 | 13.0 | 18.0 | 0.00 | 0.00 | 0.00 | 35 | 973.8 |
| 20260505113530 | 46 | 308 | 10.0 | 17.0 | 0.00 | 0.00 | 0.00 | 35 | 974.0 |
| 20260505112631 | 45 | 322 | 14.0 | 22.0 | 0.00 | 0.00 | 0.00 | 36 | 974.0 |
| 20260505111730 | 46 | 313 | 11.0 | 16.0 | 0.00 | 0.00 | 0.00 | 36 | 973.9 |
| 20260505110830 | 45 | 292 | 15.0 | 16.0 | 0.00 | 0.00 | 0.00 | 35 | 973.9 |
| 20260505100530 | 42 | 307 | 11.0 | 12.0 | 0.00 | 0.00 | 0.00 | 45 | 973.9 |
| 20260505095630 | 43 | 318 | 9.0 | 17.0 | 0.00 | 0.00 | 0.00 | 44 | 973.9 |
| 20260505094730 | 46 | 301 | 10.0 | 13.0 | 0.00 | 0.00 | 0.00 | 40 | 973.7 |
| 20260505093830 | 44 | 281 | 7.0 | 10.0 | 0.00 | 0.00 | 0.00 | 43 | 973.9 |
| 20260505092030 | 45 | 301 | 6.0 | 11.0 | 0.00 | 0.00 | 0.00 | 44 | 973.9 |
| 20260505091131 | 44 | 317 | 8.0 | 12.0 | 0.00 | 0.00 | 0.00 | 43 | 973.7 |
| 20260505090230 | 44 | 311 | 9.0 | 14.0 | 0.00 | 0.00 | 0.00 | 42 | 973.5 |
| 20260505085330 | 43 | 328 | 12.0 | 14.0 | 0.00 | 0.00 | 0.00 | 40 | 973.6 |
| 20260505084430 | 43 | 321 | 11.0 | 16.0 | 0.00 | 0.00 | 0.00 | 43 | 973.6 |
| 20260505083530 | 43 | 332 | 11.0 | 15.0 | 0.00 | 0.00 | 0.00 | 42 | 973.4 |
| 20260505082631 | 43 | 327 | 9.0 | 15.0 | 0.00 | 0.00 | 0.00 | 44 | 973.4 |
| 20260505081730 | 43 | 329 | 10.0 | 16.0 | 0.00 | 0.00 | 0.00 | 44 | 973.3 |
| 20260505080830 | 44 | 319 | 10.0 | 16.0 | 0.00 | 0.00 | 0.00 | 48 | 973.1 |
| 20260505075930 | 43 | 338 | 9.0 | 15.0 | 0.00 | 0.00 | 0.00 | 49 | 973.2 |
| 20260505075030 | 43 | 316 | 8.0 | 11.0 | 0.00 | 0.00 | 0.00 | 53 | 973.2 |
| 20260505074130 | 42 | 322 | 8.0 | 12.0 | 0.00 | 0.00 | 0.00 | 54 | 973.1 |
| 20260505073230 | 40 | 311 | 7.0 | 10.0 | 0.00 | 0.00 | 0.00 | 56 | 973.1 |
| 20260505072330 | 40 | 315 | 10.0 | 13.0 | 0.00 | 0.00 | 0.00 | 57 | 973.0 |
| 20260505071430 | 41 | 312 | 9.0 | 13.0 | 0.00 | 0.00 | 0.00 | 56 | 972.9 |
| 20260505070530 | 42 | 313 | 7.0 | 10.0 | 0.00 | 0.00 | 0.00 | 56 | 972.7 |
| 20260505065631 | 42 | 319 | 7.0 | 11.0 | 0.00 | 0.00 | 0.00 | 58 | 972.7 |
| 20260505064730 | 42 | 300 | 5.0 | 7.0 | 0.00 | 0.00 | 0.00 | 59 | 972.8 |
| 20260505063830 | 42 | 305 | 4.0 | 5.0 | 0.00 | 0.00 | 0.00 | 61 | 972.8 |
| 20260505062930 | 42 | 270 | 4.0 | 5.0 | 0.00 | 0.00 | 0.00 | 62 | 972.9 |
| 20260505061130 | 38 | 268 | 4.0 | 5.0 | 0.00 | 0.00 | 0.00 | 68 | 972.6 |
| 20260505060230 | 36 | 262 | 3.0 | 5.0 | 0.00 | 0.00 | 0.00 | 70 | 972.4 |
| 20260505055330 | 35 | 216 | 4.0 | 6.0 | 0.00 | 0.00 | 0.00 | 71 | 972.4 |
| 20260505053531 | 36 | 235 | 4.0 | 6.0 | 0.00 | 0.00 | 0.00 | 69 | 972.5 |
| 20260505050830 | 41 | 229 | 3.0 | 4.0 | 0.00 | 0.00 | 0.00 | 63 | 972.1 |
| 20260505041430 | 36 | 282 | 4.0 | 6.0 | 0.00 | 0.00 | 0.00 | 69 | 971.8 |
| 20260505040531 | 36 | 296 | 3.0 | 5.0 | 0.00 | 0.00 | 0.00 | 70 | 971.8 |
| 20260505035632 | 35 | 296 | 5.0 | 6.0 | 0.00 | 0.00 | 0.00 | 70 | 971.8 |
| 20260505034730 | 35 | 290 | 4.0 | 5.0 | 0.00 | 0.00 | 0.00 | 72 | 971.5 |
| 20260505033831 | 35 | 305 | 3.0 | 5.0 | 0.00 | 0.00 | 0.00 | 73 | 971.5 |
| 20260505032930 | 34 | 286 | 3.0 | 4.0 | 0.00 | 0.00 | 0.00 | 74 | 971.5 |
| 20260505031131 | 32 | 242 | 5.0 | 6.0 | 0.00 | 0.00 | 0.00 | 77 | 971.4 |
| 20260505030230 | 32 | 231 | 4.0 | 5.0 | 0.00 | 0.00 | 0.00 | 77 | 971.5 |
| 20260505024431 | 32 | 244 | 3.0 | 4.0 | 0.00 | 0.00 | 0.00 | 76 | 971.4 |
| 20260505022631 | 33 | 313 | 3.0 | 4.0 | 0.00 | 0.00 | 0.00 | 74 | 971.3 |
| 20260505021731 | 32 | 335 | 3.0 | 5.0 | 0.00 | 0.00 | 0.00 | 76 | 971.2 |
| 20260505020830 | 33 | 318 | 4.0 | 4.0 | 0.00 | 0.00 | 0.00 | 76 | 971.0 |
| 20260505015930 | 33 | 325 | 4.0 | 7.0 | 0.00 | 0.00 | 0.00 | 77 | 971.1 |
| 20260505015030 | 33 | 325 | 6.0 | 11.0 | 0.00 | 0.00 | 0.00 | 78 | 971.0 |
| 20260505014130 | 34 | 319 | 4.0 | 8.0 | 0.00 | 0.00 | 0.00 | 81 | 971.0 |
| 20260505013230 | 34 | 267 | 2.0 | 4.0 | 0.00 | 0.00 | 0.00 | 84 | 970.9 |
| 20260505012331 | 34 | 260 | 2.0 | 3.0 | 0.00 | 0.00 | 0.00 | 84 | 970.8 |
| 20260505011430 | 34 | 280 | 3.0 | 4.0 | 0.00 | 0.00 | 0.00 | 84 | 970.7 |
| 20260505010530 | 34 | 214 | 4.0 | 6.0 | 0.00 | 0.00 | 0.00 | 89 | 970.7 |
| 20260505005632 | 34 | 192 | 4.0 | 6.0 | 0.00 | 0.00 | 0.00 | 89 | 970.7 |
| 20260505004731 | 34 | 198 | 5.0 | 6.0 | 0.00 | 0.00 | 0.00 | 90 | 970.7 |
| 20260505003831 | 34 | 181 | 4.0 | 6.0 | 0.00 | 0.00 | 0.00 | 90 | 970.7 |
| 20260505002931 | 34 | 215 | 4.0 | 4.0 | 0.00 | 0.00 | 0.00 | 89 | 970.6 |
| 20260505002030 | 34 | 217 | 4.0 | 5.0 | 0.00 | 0.00 | 0.00 | 89 | 970.4 |
| 20260505001130 | 35 | 229 | 3.0 | 3.0 | 0.00 | 0.00 | 0.00 | 88 | 970.4 |
| 20260504235331 | 35 | 235 | 2.0 | 3.0 | 0.00 | 0.00 | 0.00 | 88 | 970.3 |
| 20260504234430 | 35 | 263 | 4.0 | 7.0 | 0.00 | 0.00 | 0.00 | 88 | 970.3 |
| 20260504233530 | 35 | 233 | 4.0 | 5.0 | 0.00 | 0.00 | 0.00 | 88 | 970.2 |
| 20260504232632 | 35 | 240 | 2.0 | 3.0 | 0.00 | 0.00 | 0.00 | 88 | 970.2 |
| 20260504231731 | 35 | 214 | 3.0 | 4.0 | 0.00 | 0.00 | 0.00 | 89 | 970.2 |
| 20260504230830 | 35 | 225 | 3.0 | 4.0 | 0.00 | 0.00 | 0.00 | 88 | 970.2 |
| 20260504225930 | 35 | 242 | 3.0 | 6.0 | 0.00 | 0.00 | 0.00 | 88 | 970.3 |
| 20260504225030 | 35 | 270 | 5.0 | 7.0 | 0.00 | 0.00 | 0.00 | 88 | 970.3 |
| 20260504224131 | 35 | 236 | 4.0 | 7.0 | 0.00 | 0.00 | 0.00 | 88 | 970.2 |
| 20260504223230 | 35 | 235 | 4.0 | 5.0 | 0.00 | 0.00 | 0.00 | 87 | 970.1 |
| 20260504222330 | 35 | 284 | 3.0 | 5.0 | 0.00 | 0.00 | 0.00 | 87 | 970.0 |
| 20260504221430 | 35 | 285 | 3.0 | 4.0 | 0.00 | 0.00 | 0.00 | 87 | 969.8 |
| 20260504220531 | 35 | 299 | 3.0 | 5.0 | 0.00 | 0.00 | 0.00 | 86 | 969.6 |
| 20260504215632 | 35 | 303 | 3.0 | 5.0 | 0.00 | 0.00 | 0.00 | 86 | 969.5 |
| 20260504214731 | 36 | 299 | 3.0 | 4.0 | 0.00 | 0.00 | 0.00 | 86 | 969.6 |
| 20260504212931 | 36 | 265 | 2.0 | 4.0 | 0.00 | 0.00 | 0.00 | 85 | 969.7 |
| 20260504212030 | 36 | 283 | 3.0 | 6.0 | 0.00 | 0.00 | 0.00 | 86 | 969.4 |
| 20260504211132 | 36 | 327 | 3.0 | 4.0 | 0.00 | 0.00 | 0.00 | 85 | 969.5 |
| 20260504210230 | 36 | 347 | 3.0 | 4.0 | 0.00 | 0.00 | 0.00 | 85 | 969.2 |
| 20260504204430 | 37 | 322 | 5.0 | 7.0 | 0.00 | 0.00 | 0.00 | 84 | 969.9 |
| 20260504203531 | 37 | 339 | 6.0 | 8.0 | 0.00 | 0.00 | 0.00 | 82 | 969.5 |
| 20260504202631 | 38 | 335 | 5.0 | 8.0 | 0.00 | 0.00 | 0.00 | 80 | 969.4 |
| 20260504201731 | 38 | 337 | 7.0 | 11.0 | 0.00 | 0.00 | 0.00 | 78 | 969.3 |
| 20260504200831 | 39 | 303 | 6.0 | 9.0 | 0.00 | 0.00 | 0.00 | 76 | 969.5 |
| 20260504195930 | 40 | 319 | 10.0 | 14.0 | 0.00 | 0.00 | 0.00 | 73 | 969.4 |
| 20260504195031 | 40 | 356 | 9.0 | 12.0 | 0.00 | 0.00 | 0.00 | 72 | 969.3 |
| 20260504194130 | 41 | 352 | 10.0 | 13.0 | 0.00 | 0.00 | 0.00 | 70 | 969.2 |
| 20260504193231 | 42 | 339 | 10.0 | 13.0 | 0.00 | 0.00 | 0.00 | 66 | 969.2 |
| 20260504192331 | 43 | 344 | 10.0 | 13.0 | 0.00 | 0.00 | 0.00 | 61 | 969.0 |
| 20260504191430 | 44 | 6 | 9.0 | 11.0 | 0.00 | 0.00 | 0.00 | 56 | 968.9 |
| 20260504190530 | 44 | 331 | 6.0 | 11.0 | 0.00 | 0.00 | 0.00 | 56 | 968.7 |
| 20260504185631 | 44 | 12 | 7.0 | 10.0 | 0.00 | 0.00 | 0.00 | 55 | 968.4 |
| 20260504184731 | 44 | 351 | 5.0 | 8.0 | 0.00 | 0.00 | 0.00 | 55 | 968.5 |
| 20260504182930 | 45 | 25 | 7.0 | 11.0 | 0.00 | 0.00 | 0.00 | 54 | 968.4 |
| 20260504181130 | 47 | 357 | 12.0 | 17.0 | 0.00 | 0.00 | 0.00 | 49 | 968.1 |
| 20260504180231 | 48 | 348 | 9.0 | 12.0 | 0.00 | 0.00 | 0.00 | 43 | 967.9 |
| 20260504175331 | 48 | 328 | 10.0 | 14.0 | 0.00 | 0.00 | 0.00 | 44 | 968.2 |
| 20260504172631 | 50 | 316 | 16.0 | 22.0 | 0.00 | 0.00 | 0.00 | 40 | 968.3 |
| 20260504171731 | 51 | 322 | 18.0 | 23.0 | 0.00 | 0.00 | 0.00 | 36 | 968.0 |
| 20260504151131 | 58 | 322 | 12.0 | 16.0 | 0.00 | 0.00 | 0.00 | 22 | 967.4 |